Home   Weather   Cabinda   Past weeks

Flag for Angola Past Weather in Cabinda, Angola — Yesterday and Last 2 Weeks

Now
72 °F

Passing clouds.


Feels Like: 69 °F
Forecast: 68 / 74 °F
Wind: 7 mph from South

Location: Pointe Airport-Noire

Current Time: Aug 17, 2017 at 7:19:14 am

Latest Report: Aug 17, 2017 at 6:00 am


Visibility: 4 mi

Pressure: 29.95 "Hg

Humidity: 88%

Dew Point: 68 °F

Location of CabindaLocation

Past Weather in Cabinda — Graph

°F

Cabinda Temperature Yesterday

Maximum temperature yesterday: 75 °F (at 11:00 am)
Minimum temperature yesterday: 70 °F (at 6:00 am)
Average temperature yesterday: 73 °F

High & Low Weather Summary for the Past Weeks

 TemperatureHumidityPressure
High79 °F (Aug 2, 12:00 pm)100% (Aug 8, 4:00 am)30.09 "Hg (Aug 8, 4:00 am)
Low70 °F (Aug 3, 2:00 am)61% (Aug 3, 12:00 pm)29.86 "Hg (Aug 14, 3:00 pm)
Average74 °F82%29.98 "Hg
* Reported Aug 2 5:00 am — Aug 17 5:00 am, Cabinda. Weather by CustomWeather, © 2017

Note: Actual official high and low records may vary slightly from our data, if they occured in-between our weather recording intervals... More about our weather records

Advertising

Cabinda Weather History for the Previous 24 Hours

Scroll right to see more
 ConditionsComfort  
Time TempWeatherWind HumidityBarometerVisibility
5:00 am
Thu, Aug 17
72 °FOvercast.5 mph88%29.95 "Hg4 mi
4:00 am72 °FPassing clouds.1 mph88%29.92 "Hg4 mi
3:00 am72 °FPassing clouds.2 mph88%29.92 "Hg4 mi
2:00 am70 °FPassing clouds.5 mph94%29.95 "Hg4 mi
1:00 am70 °FPassing clouds.5 mph94%29.95 "Hg4 mi
12:00 am72 °FPassing clouds.5 mph88%29.95 "Hg4 mi
11:00 pm
Wed, Aug 16
72 °FPassing clouds.5 mph88%29.95 "Hg4 mi
10:00 pm72 °FPassing clouds.3 mph88%29.95 "Hg4 mi
9:00 pm73 °FPassing clouds.2 mph78%29.95 "Hg4 mi
8:00 pm72 °FOvercast.5 mph83%29.92 "Hg4 mi
7:00 pm72 °FOvercast.3 mph88%29.92 "Hg4 mi
6:00 pm73 °FMore clouds than sun.7 mph78%29.89 "Hg4 mi
5:00 pm73 °FMore clouds than sun.7 mph78%29.89 "Hg4 mi
4:00 pm73 °FOvercast.9 mph78%29.89 "Hg5 mi
3:00 pm75 °FOvercast.7 mph74%29.92 "Hg5 mi
2:00 pm75 °FOvercast.12 mph74%29.92 "Hg5 mi
1:00 pm75 °FOvercast.9 mph74%29.95 "Hg4 mi
12:00 pm75 °FMore clouds than sun.9 mph78%29.98 "Hg4 mi
11:00 am75 °FOvercast.5 mph78%29.98 "Hg4 mi
10:00 am73 °FOvercast.7 mph83%30.01 "Hg4 mi
9:00 am72 °FFog.7 mph88%30.01 "Hg2 mi
8:00 am72 °FFog.5 mph88%29.98 "Hg2 mi
7:00 am70 °FFog.5 mph94%29.95 "Hg2 mi
Weather by CustomWeather, © 2017

See weather overviewHow to use our weather pages